[[{"header":{"parameterUnit":"m.s-1","parameterCategory":1,"la1":30.2991,"la2":30.254,"lo1":-89.0895,"lo2":-89.0444,"dy":0.0017,"dx":0.0017,"nx":28,"ny":28,"refTime":"2024-08-23T03:00:00:Z","depth":0,"parameterNumber":2,"parameterNumberName":"U-component_of_WINDS"},"data":[0,0,0,0,0,0,0,0,0,0,0,0,0,0,0,0,0,0,0,0,0,0,0,0,0,0,0,0,0,0,0,0,0,0,0,0,0,0,0,0,0,0,0,0,0,0,0,0,0,0,0,0,0,0,0,0,0,0,0.2607,0.2609,0,0.276,0.2762,0.2764,0.2811,0.281,0.2809,0.2809,0.2969,0.2974,0.2978,0,0,0,0,0,0,0,0,0,0,0,0,0,0.2359,0.2363,0.2607,0.2609,0.2611,0.276,0.2762,0.2764,0.2811,0.281,0.2809,0.2808,0.2967,0.2973,0.2979,0,0,0,0,0,0,0,0,0,0,0,0,0,0.2485,0.2364,0.2607,0.2652,0.2658,0.2759,0.2762,0.2765,0.2811,0.281,0.2809,0.2808,0.2965,0.2972,0.298,0.3048,0,0,0.3002,0.3006,0,0,0,0,0,0,0,0,0.2477,0.2494,0.2644,0.2649,0.2656,0.2765,0.2733,0.286,0.2811,0.2753,0.2809,0.2807,0.2902,0.2915,0.2946,0.3056,0.3063,0.3003,0.3008,0.3011,0.3013,0,0,0,0,0,0,0,0.2469,0.2487,0.2668,0.2646,0.2653,0.2666,0.2683,0.2757,0.2832,0.2758,0.2762,0.2779,0.2905,0.2939,0.295,0.3065,0.3003,0.301,0.3014,0.3017,0.3238,0.324,0,0,0,0,0,0,0.2452,0.248,0.2663,0.2672,0.2562,0.2671,0.269,0.2731,0.2831,0.2846,0.278,0.2781,0.2927,0.2941,0.2956,0.3042,0.3011,0.3018,0.3022,0.3237,0.3239,0.324,0,0,0,0,0,0,0.2446,0.2468,0.2657,0.2577,0.2602,0.2677,0.2723,0.2735,0.2768,0.2848,0.2862,0.28,0.2926,0.2945,0.3025,0.3048,0.3021,0.3028,0.3235,0.3237,0.3239,0.3215,0,0,0,0,0,0,0.2439,0.2465,0.2491,0.2577,0.2606,0.2722,0.2724,0.2739,0.2781,0.2783,0.2871,0.2884,0.2927,0.3013,0.3032,0.3058,0.3034,0.3233,0.3236,0.3239,0.3214,0.3217,0.3218,0,0,0,0,0,0.243,0.248,0.2492,0.2514,0.264,0.2723,0.274,0.2787,0.2782,0.281,0.2861,0.2881,0.3043,0.3021,0.3043,0.3071,0.3232,0.3235,0.3239,0.3214,0.3216,0.3218,0,0,0,0,0,0,0.2396,0.2492,0.2507,0.2586,0.2646,0.2731,0.2767,0.2788,0.2852,0.2852,0.2909,0.2928,0.3003,0.3045,0.3019,0.3143,0.3138,0.3146,0.3112,0.3115,0.3117,0.3105,0.304,0,0,0,0,0,0.2397,0.2455,0.2537,0.2598,0.2627,0.2692,0.273,0.2761,0.2826,0.2852,0.2909,0.2972,0.3037,0.3078,0.3143,0.3221,0.3241,0.3251,0.3253,0.3254,0.326,0.3304,0.331,0.3251,0.3251,0.3251,0,0,0.2401,0.2461,0.2494,0.2593,0.2643,0.2703,0.2713,0.2776,0.2821,0.2862,0.2939,0.2983,0.3058,0.3136,0.3174,0.3174,0.3281,0.3259,0.3259,0.3264,0.3308,0.3314,0.3318,0.3253,0.3252,0.3252,0,0,0.2439,0.249,0.2546,0.2596,0.2671,0.2714,0.2727,0.2809,0.2839,0.2918,0.2949,0.3005,0.3116,0.3167,0.3207,0.3264,0.3285,0.3283,0.3293,0.3335,0.334,0.3344,0.3364,0.337,0.3289,0.3289,0.3289,0,0.2435,0.2525,0.2573,0.2634,0.2677,0.2715,0.2773,0.2819,0.2912,0.2941,0.2939,0.3079,0.3132,0.3222,0.3236,0.3268,0.3285,0.3273,0.3335,0.334,0.3345,0.3364,0.3371,0.3288,0.3288,0.3288,0.3288,0,0.2516,0.2578,0.2615,0.2701,0.2748,0.2808,0.2866,0.2907,0.2934,0.2977,0.3056,0.3121,0.3199,0.3223,0.325,0.3318,0.3315,0.3324,0.332,0.3349,0.3368,0.3376,0.3287,0.3287,0.3287,0.3288,0,0,0.2536,0.2648,0.2661,0.2701,0.2786,0.2836,0.2897,0.2972,0.3006,0.3069,0.3122,0.3214,0.3222,0.3268,0.3302,0.3339,0.3379,0.3343,0.3346,0.3347,0.3456,0.3449,0.3456,0.3393,0.3395,0.3396,0.345,0,0.2584,0.2693,0.2738,0.2827,0.2885,0.2922,0.2976,0.3034,0.3076,0.3132,0.3178,0.3242,0.3249,0.3276,0.3315,0.3366,0.3401,0.3363,0.3443,0.3446,0.3423,0.3467,0.3459,0.3506,0.3458,0.3459,0.346,0,0.2655,0.2716,0.281,0.2888,0.2914,0.2961,0.3033,0.3086,0.3153,0.3181,0.3231,0.3263,0.3329,0.3322,0.3414,0.3386,0.3422,0.3452,0.3455,0.3464,0.3454,0.3476,0.3523,0.3529,0.3472,0.3471,0.347,0,0.2659,0.2766,0.2835,0.2868,0.2961,0.2993,0.3034,0.31,0.3142,0.3205,0.3233,0.3303,0.3342,0.3396,0.3446,0.3436,0.3533,0.353,0.3558,0.3556,0.3576,0.3574,0.3628,0.36,0.36,0.36,0.36,0,0.2707,0.2763,0.2838,0.2881,0.2945,0.2997,0.3059,0.3102,0.3161,0.3213,0.325,0.3299,0.3362,0.3419,0.3459,0.3528,0.3546,0.357,0.358,0.3567,0.3563,0.3591,0.3588,0.3602,0.3601,0.3601,0.3601,0,0.2723,0.2775,0.2854,0.2935,0.2957,0.3,0.307,0.3113,0.3156,0.3222,0.3241,0.3309,0.3377,0.3433,0.3523,0.355,0.3623,0.3634,0.3599,0.3604,0.3629,0.3626,0.3702,0.3715,0.3678,0.3678,0.3679,0,0.275,0.2793,0.2879,0.2916,0.2955,0.3015,0.3057,0.311,0.3153,0.3233,0.3267,0.3338,0.3397,0.3506,0.3564,0.3633,0.3646,0.3668,0.3657,0.3641,0.3645,0.3642,0.3646,0.3669,0.3669,0.3669,0.3669,0,0.2792,0.2816,0.2875,0.2943,0.2992,0.3049,0.3106,0.3135,0.3198,0.3245,0.3315,0.3361,0.3452,0.3522,0.3597,0.364,0.3665,0.3672,0.3682,0.3669,0.3646,0.3658,0.3602,0.367,0.367,0.367,0.367,0.367,0.2814,0.2854,0.292,0.2985,0.3033,0.3086,0.313,0.3178,0.3237,0.3315,0.3343,0.3415,0.3481,0.3584,0.3627,0.3685,0.3687,0.3702,0.3705,0.3708,0.3706,0.3637,0.3699,0.3699,0.3699,0.3699,0.3699,0,0.2857,0.2901,0.296,0.3039,0.3089,0.3108,0.3172,0.3214,0.3276,0.3335,0.3393,0.3473,0.3541,0.3604,0.3675,0.3709,0.3722,0.3726,0.3724,0.3733,0.37,0.3684,0.3714,0.3714,0.3714,0.3714,0.3714,0.3714,0.2886,0.2954,0.2986,0.3079,0.3124,0.3193,0.3228,0.3277,0.3325,0.3412,0.3468,0.3508,0.357,0.3645,0.3709,0.3726,0.375,0.375,0.377,0.3738,0.3736,0.3733,0.3718,0.3755,0.3755,0.3798,0.3798,0.3799]},{"header":{"parameterUnit":"m.s-1","parameterCategory":1,"la1":30.2991,"la2":30.254,"lo1":-89.0895,"lo2":-89.0444,"dy":0.0017,"dx":0.0017,"nx":28,"ny":28,"refTime":"2024-08-23T03:00:00:Z","depth":0,"parameterNumber":3,"parameterNumberName":"V-component_of_WINDS"},"data":[0,0,0,0,0,0,0,0,0,0,0,0,0,0,0,0,0,0,0,0,0,0,0,0,0,0,0,0,0,0,0,0,0,0,0,0,0,0,0,0,0,0,0,0,0,0,0,0,0,0,0,0,0,0,0,0,0,0,1.8214,1.8213,0,1.8153,1.8152,1.8151,1.8064,1.8063,1.8061,1.806,1.7997,1.7997,1.7997,0,0,0,0,0,0,0,0,0,0,0,0,0,1.8254,1.8253,1.8214,1.8213,1.8212,1.8153,1.8152,1.8151,1.8064,1.8063,1.8061,1.8059,1.7997,1.7997,1.7997,0,0,0,0,0,0,0,0,0,0,0,0,0,1.8219,1.8253,1.8214,1.8162,1.8156,1.8153,1.8152,1.8151,1.8065,1.8062,1.806,1.8058,1.7998,1.7997,1.7997,1.8039,0,0,1.7996,1.7995,0,0,0,0,0,0,0,0,1.8221,1.8218,1.817,1.8165,1.8159,1.8114,1.8143,1.8113,1.8065,1.81,1.806,1.8057,1.8038,1.8034,1.8027,1.8036,1.8034,1.7996,1.7995,1.7995,1.7995,0,0,0,0,0,0,0,1.8224,1.822,1.8189,1.8169,1.8163,1.8141,1.8133,1.8137,1.8082,1.8096,1.809,1.8084,1.8034,1.8028,1.8025,1.8033,1.7996,1.7995,1.7995,1.7995,1.8069,1.8071,0,0,0,0,0,0,1.8234,1.8222,1.8191,1.8188,1.8185,1.8142,1.8134,1.8131,1.8082,1.8072,1.8086,1.808,1.803,1.8026,1.8023,1.8065,1.7995,1.7995,1.7995,1.8067,1.8069,1.8072,0,0,0,0,0,0,1.8235,1.8232,1.8194,1.8203,1.8197,1.8144,1.8141,1.8131,1.8124,1.8074,1.8064,1.8089,1.8028,1.8023,1.8035,1.8062,1.7995,1.7994,1.8064,1.8067,1.807,1.8153,0,0,0,0,0,0,1.8237,1.8233,1.8249,1.8204,1.8196,1.8207,1.8143,1.8131,1.8123,1.8115,1.8074,1.8065,1.8026,1.8036,1.8034,1.806,1.7994,1.8061,1.8065,1.8069,1.8147,1.8159,1.8168,0,0,0,0,0,1.8238,1.8275,1.825,1.8247,1.8215,1.8209,1.8205,1.8158,1.8126,1.8141,1.8108,1.8067,1.806,1.8038,1.8035,1.8061,1.8059,1.8064,1.8069,1.8143,1.8156,1.8168,0,0,0,0,0,0,1.8325,1.8269,1.824,1.8264,1.8242,1.8194,1.8212,1.8175,1.8162,1.8154,1.8098,1.8089,1.8107,1.8086,1.8062,1.8098,1.8053,1.8058,1.811,1.8123,1.8133,1.8135,1.7994,0,0,0,0,0,1.8347,1.8347,1.8298,1.8324,1.8314,1.8265,1.8261,1.8227,1.8202,1.8192,1.816,1.8138,1.813,1.8126,1.8116,1.8146,1.8133,1.8162,1.8173,1.8181,1.8185,1.8194,1.8205,1.8088,1.8088,1.8088,0,0,1.8392,1.8361,1.8365,1.834,1.8319,1.8319,1.8258,1.8261,1.826,1.8193,1.8199,1.8176,1.8147,1.8166,1.8173,1.8149,1.8215,1.8188,1.8195,1.8193,1.82,1.8211,1.8221,1.8091,1.8091,1.809,0,0,1.8473,1.8452,1.8468,1.8448,1.8417,1.8384,1.8389,1.8347,1.8328,1.8334,1.8283,1.8281,1.827,1.8249,1.8238,1.831,1.827,1.8309,1.8362,1.8372,1.8381,1.8389,1.841,1.8419,1.8314,1.8314,1.8314,0,1.8532,1.853,1.8482,1.8487,1.8476,1.8416,1.8431,1.8415,1.8382,1.8375,1.835,1.8332,1.8309,1.832,1.8337,1.8332,1.8332,1.8312,1.8384,1.8391,1.8397,1.8417,1.8426,1.8319,1.8318,1.8318,1.8317,0,1.8603,1.8603,1.862,1.8588,1.858,1.8592,1.8543,1.8541,1.8508,1.8478,1.8484,1.8453,1.8434,1.8436,1.8405,1.8442,1.8427,1.8394,1.8347,1.8414,1.8431,1.8439,1.8325,1.8323,1.8322,1.8321,0,0,1.8734,1.8676,1.8682,1.8666,1.8627,1.8625,1.8633,1.8614,1.8611,1.8591,1.8593,1.8585,1.8553,1.854,1.8506,1.8515,1.8568,1.8479,1.8478,1.8493,1.8603,1.8625,1.8635,1.8543,1.8545,1.8546,1.8604,0,1.8804,1.8812,1.8768,1.8788,1.8784,1.8727,1.8733,1.8709,1.8681,1.8674,1.8643,1.8636,1.8596,1.8587,1.8594,1.8561,1.8589,1.8557,1.8542,1.8542,1.8546,1.8644,1.8668,1.8724,1.8611,1.8612,1.8613,0,1.8885,1.8868,1.8887,1.8844,1.8841,1.8847,1.8825,1.882,1.8791,1.877,1.8755,1.8715,1.8717,1.8676,1.8677,1.8656,1.8648,1.863,1.8631,1.8624,1.8578,1.8636,1.8742,1.8748,1.8624,1.8623,1.8622,0,1.8973,1.8955,1.8963,1.8951,1.8903,1.8908,1.8888,1.8857,1.8848,1.8829,1.8821,1.8804,1.8793,1.878,1.8736,1.871,1.874,1.8696,1.872,1.8721,1.8725,1.8724,1.8826,1.8728,1.8728,1.8728,1.8728,0,1.9052,1.9065,1.9001,1.9005,1.9017,1.8967,1.898,1.8955,1.8927,1.8924,1.8876,1.8874,1.8818,1.881,1.8776,1.8779,1.8776,1.8757,1.8747,1.8758,1.876,1.8749,1.8742,1.873,1.873,1.8729,1.8729,0,1.915,1.9109,1.9112,1.9066,1.9055,1.9065,1.9025,1.9026,1.8996,1.8993,1.8989,1.894,1.8928,1.8884,1.8861,1.8838,1.885,1.8834,1.8859,1.8852,1.8876,1.8873,1.8971,1.8979,1.8881,1.8882,1.8883,0,1.9201,1.9209,1.9163,1.9158,1.914,1.9132,1.9122,1.9074,1.9065,1.9031,1.9036,1.902,1.9003,1.8986,1.8947,1.8929,1.8909,1.8945,1.8906,1.8916,1.8904,1.8902,1.8901,1.8952,1.8953,1.8954,1.8955,0,1.9294,1.9273,1.926,1.924,1.9229,1.9211,1.919,1.9188,1.9134,1.9126,1.9112,1.91,1.9076,1.9058,1.9034,1.9012,1.8973,1.8968,1.8972,1.8982,1.8994,1.8983,1.8877,1.8965,1.8964,1.8964,1.8963,1.8963,1.9366,1.9369,1.9337,1.9324,1.9303,1.9284,1.9282,1.9251,1.9239,1.9214,1.9187,1.9176,1.9145,1.9107,1.9088,1.9077,1.9057,1.9063,1.9064,1.9065,1.9069,1.9,1.9073,1.9073,1.9073,1.9072,1.9072,0,1.9453,1.9429,1.9418,1.9389,1.9378,1.9345,1.932,1.9312,1.9303,1.9278,1.9262,1.9245,1.9228,1.9189,1.9167,1.9166,1.9148,1.9162,1.9159,1.9154,1.9091,1.9088,1.9177,1.9177,1.9177,1.9177,1.9177,1.9177,1.9496,1.9498,1.9473,1.9464,1.944,1.9428,1.9416,1.9397,1.9376,1.9359,1.9345,1.932,1.9287,1.9263,1.9245,1.9234,1.9226,1.9245,1.9228,1.9169,1.9159,1.9149,1.9145,1.9245,1.9245,1.9291,1.9291,1.9292]}]]